Location: Vinland
(47.7731°N, 122.6974°W)
Time: 13:05:31
(UTC+00:00)

Tiros 1 - Pass Details

Date: 02 April 2023
Orbit: 627 x 660 km, 48.4° (Epoch: 28 May)

Event Time Altitude Azimuth Distance (km) Brightness Sun altitude
Exits shadow 10:04:54 15° 96° (E) 1,777 9.6 -32.0°
Drops below altitude 10° 10:05:54 10° 87° (E) 2,075 10.1 -31.9°
Sets 10:08:34 0° 75° (ENE) 2,992 11.2 -31.7°
